This is the latest recevied weather packets stored in our database for station/object KN6ZYR. If no packets are shown the sender has not sent any weather packets the latest 10 day(s).
| Time | Temp. | Humidity | Pressure | Rain* | Wind** | Luminosity | Snow |
|---|---|---|---|---|---|---|---|
| 1777754714 | 28.33° C | 14% | 1018.4 hPa | 0 mm | - | 776 W/m² | - |
| 1777754412 | 27.78° C | 15% | 1018.8 hPa | 0 mm | - | 742 W/m² | - |
| 1777754109 | 27.22° C | 14% | 1018.9 hPa | 0 mm | - | 788 W/m² | - |
| 1777753806 | 28.33° C | 14% | 1018.9 hPa | 0 mm | - | 751 W/m² | - |
| 1777753502 | 28.33° C | 14% | 1019 hPa | 0 mm | - | 775 W/m² | - |
| 1777753200 | 27.22° C | 15% | 1019.1 hPa | 0 mm | - | 749 W/m² | - |
| 1777752896 | 27.22° C | 14% | 1018.9 hPa | 0 mm | - | 793 W/m² | - |
| 1777752593 | 26.67° C | 15% | 1019.2 hPa | 0 mm | - | 771 W/m² | - |
| 1777752288 | 26.67° C | 15% | 1019.2 hPa | 0 mm | - | 693 W/m² | - |
| 1777751986 | 26.67° C | 14% | 1019.3 hPa | 0 mm | - | 800 W/m² | - |
| 1777751684 | 27.22° C | 15% | 1019.2 hPa | 0 mm | - | 768 W/m² | - |
| 1777751380 | 26.67° C | 14% | 1019.6 hPa | 0 mm | - | 730 W/m² | - |
| 1777751077 | 26.67° C | 16% | 1019.6 hPa | 0 mm | - | 722 W/m² | - |
| 1777750772 | 27.22° C | 15% | 1019.6 hPa | 0 mm | - | 776 W/m² | - |
| 1777750470 | 27.22° C | 15% | 1019.6 hPa | 0 mm | - | 710 W/m² | - |
| 1777750165 | 26.67° C | 15% | 1019.6 hPa | 0 mm | - | 760 W/m² | - |
| 1777749857 | 26.67° C | 15% | 1019.6 hPa | 0 mm | - | 797 W/m² | - |
| 1777749554 | 26.67° C | 15% | 1019.8 hPa | 0 mm | - | 802 W/m² | - |
| 1777749252 | 26.67° C | 15% | 1019.7 hPa | 0 mm | - | 774 W/m² | - |
| 1777748949 | 26.11° C | 15% | 1019.8 hPa | 0 mm | - | 749 W/m² | - |
| 1777748647 | 26.11° C | 16% | 1020 hPa | 0 mm | - | 728 W/m² | - |
| 1777748343 | 26.11° C | 15% | 1019.9 hPa | 0 mm | - | 686 W/m² | - |
| 1777748038 | 26.67° C | 15% | 1020 hPa | 0 mm | - | 762 W/m² | - |
| 1777747735 | 25.56° C | 15% | 1020.1 hPa | 0 mm | - | 731 W/m² | - |
| 1777747430 | 26.67° C | 15% | 1020.2 hPa | 0 mm | - | 687 W/m² | - |
* Rain latest hour (hover to see other rain measurements)
** Current wind speed in m/s (hover to see current wind gust speed)